Location: Kelshall
(52.0000°N, 0.0500°W)
Time: 12:40:19
(UTC+00:00)

CENTAUR R/B - Pass Details

Date: 18 September 2020
Orbit: 755 x 1433 km, 63.4° (Epoch: 02 October)

Event Time Altitude Azimuth Distance (km) Brightness Sun altitude
Rises 21:12:19 0° 314° (NW) 4,135 7.1 -26.7°
Reaches altitude 10° 21:15:03 10° 309° (NW) 3,253 6.2 -27.0°
Maximum altitude 21:22:40 48° 239° (WSW) 1,723 3.7 -27.8°
Enters shadow 21:25:43 36° 192° (SSW) 2,087 3.9 -28.1°
